Location: Columbia
(38.9520°N, 92.3340°W)
Time: 16:24:04
(UTC-05:00)

Daily predictions for brighter satellites

Satellite Brightness Start Highest point End
(mag) Time Altitude Azimuth Time Altitude Azimuth Time Altitude Azimuth
Cosmos 1184 Rocket 2.8 19:27:19 10° N 19:30:43 77° E 19:34:05 10° SSE
SPOT 3 Rocket 3.7 19:25:37 10° SSE 19:30:46 83° WSW 19:35:57 10° NNW
Tiangong 2 2.9 19:28:40 10° W 19:31:29 28° SSW 19:34:18 10° SSE
DMSP B5D1-3 4.5 19:30:02 10° NNE 19:35:09 77° ESE 19:40:13 10° S
Cosmos 2292 Rocket 3.7 19:34:54 10° SSW 19:38:18 55° W 19:41:16 10° N
Milstar 3 Cent rocket 4.0 19:40:33 10° S 19:42:19 12° SSE 19:43:58 10° SE
Resurs 01 Rocket 3.2 19:41:07 10° ESE 19:44:02 17° ENE 19:46:56 10° NNE
ALOS 2.2 19:42:09 10° SSE 19:46:48 84° ENE 19:51:30 10° N
FALCON 9 R/B 2.0 19:46:41 10° SW 19:49:13 38° SSE 19:53:49 12° E
Cosmos 1898 Rocket 3.4 19:45:34 10° NNW 19:50:46 75° ENE 19:55:56 10° SSE
Cosmos 1943 Rocket 2.1 19:45:34 10° NNW 19:51:09 74° ENE 19:56:45 10° SSE
Cosmos 1814 Rocket 3.9 19:48:15 10° S 19:53:22 65° ESE 19:58:28 10° NNE
FREGAT/IRIS 2.6 19:51:59 10° SSE 19:54:58 63° ENE 19:57:59 10° N
ORS 1 (USA 231) 4.4 19:53:08 10° W 19:56:04 75° N 19:58:17 16° ENE
Cosmos 2084 3.5 19:54:24 10° SSW 19:58:23 49° ESE 20:02:11 10° NE
Meteor 2-5 Rocket 3.9 19:53:00 10° N 19:58:45 54° ENE 20:04:21 10° SSE
Lacrosse 5 3.0 19:54:00 10° NW 19:58:48 44° SW 20:03:34 10° SSE
USA 81 4.1 19:54:48 10° N 20:00:01 58° E 20:05:13 10° SSE
H-2A R/B 2.7 19:56:59 10° SSE 20:00:37 58° ENE 20:04:17 10° N
Cosmos 990 Rocket 4.0 19:58:21 10° NNW 20:03:29 61° ENE 20:08:32 10° SSE
Cosmos 2228 3.0 20:00:32 10° S 20:04:50 59° E 20:09:07 10° NNE
Cosmos 2058 Rocket 3.0 20:01:59 10° S 20:06:17 67° E 20:10:37 10° NNE
Cosmos 1606 Rocket 3.9 20:02:53 10° SSW 20:07:12 67° W 20:11:32 10° N
Cosmos 2150 Rocket 4.0 20:03:51 10° NNW 20:09:11 71° ENE 20:14:34 10° SSE
Cosmos 1953 Rocket 3.5 20:04:55 10° N 20:09:16 87° W 20:13:35 10° S
Envisat 3.9 20:08:43 17° ESE 20:11:44 29° ENE 20:16:04 10° N
Cosmos 1766 3.9 20:08:18 10° SSE 20:11:50 33° E 20:15:23 10° NNE
Cosmos 389 Rocket 3.7 20:09:31 10° SSW 20:12:53 44° WNW 20:16:15 10° N
COSMOS 2406 3.6 20:12:18 10° S 20:17:33 40° ESE 20:22:52 10° NE
Cosmos 1939 Rocket 4.5 20:18:19 17° ENE 20:18:19 17° ENE 20:20:31 10° NNE
FengYun 1-2 T 4.3 20:13:25 10° SSE 20:19:02 86° WSW 20:24:39 10° NNW
Cosmos 1707 3.0 20:17:04 10° NNW 20:20:58 72° W 20:24:53 10° S
Cosmos 2369 Rocket 4.1 20:24:57 10° NW 20:29:47 30° WSW 20:34:33 10° SSW
Cosmos 1656 Rocket 3.6 20:26:04 10° NNW 20:31:43 69° ENE 20:35:30 21° SE
Cosmos 841 Rocket 3.5 20:29:33 10° SSW 20:34:42 82° WNW 20:39:52 10° NNE
Cosmos 1340 Rocket 4.5 20:31:04 10° NNW 20:34:48 36° W 20:38:32 10° SSW
Cosmos 1937 Rocket 4.1 20:31:32 10° NNW 20:36:44 58° WSW 20:41:52 10° S
USA 229 DEB 4.4 20:37:26 10° NW 20:44:25 55° WSW 20:51:32 10° SSE
USA 229 4.4 20:37:32 10° NW 20:44:32 56° WSW 20:51:38 10° SSE
NOSS 3-1 (A) 4.1 20:41:30 10° NNW 20:49:09 67° NE 20:53:33 31° SE
Cosmos 1356 Rocket 3.7 20:45:18 10° NNW 20:49:34 71° W 20:52:44 18° S
Cosmos 1805 4.0 20:51:04 38° NE 20:51:04 38° NE 20:53:43 10° NNE
In-Cosmos 22 4.1 20:46:11 10° N 20:51:53 79° E 20:55:45 22° SSE
BREEZE M DEB (TANK) 2.5 20:48:32 10° NW 20:54:17 79° NNE 20:54:24 77° ENE
CZ-2D R/B 3.7 20:52:15 23° S 20:54:27 58° W 20:58:13 10° NNW
Cosmos 2154 Rocket 3.9 20:49:13 10° S 20:55:17 62° E 21:01:27 10° NNE
NOSS 3-1 (C) 4.1 20:51:44 10° NW 20:59:29 85° WSW 21:04:39 27° SSE
Cosmos 1544 3.3 20:57:53 26° SSW 20:59:46 66° W 21:03:23 10° N
Cosmos 2074 Rocket 4.5 20:55:24 10° SSW 21:01:31 60° W 21:07:40 10° N
Cosmos 2341 Rocket 4.1 21:01:46 45° ESE 21:02:48 49° E 21:08:45 10° NNE
Cosmos 540 Rocket 3.3 20:57:49 10° SSW 21:02:55 89° ESE 21:08:03 10° NNE
OAO 3 Copernicus 4.5 20:58:25 10° WSW 21:03:19 52° S 21:03:32 52° SSE
Resurs 1-3 3.8 21:01:49 34° S 21:03:37 69° WSW 21:08:01 10° NNW
Meteor 1-24 Rocket 4.4 21:06:30 10° NNW 21:12:21 57° W 21:17:49 11° S
Spot 2 Rocket 3.9 21:16:01 30° SSW 21:18:22 58° WSW 21:23:22 10° NNW
Resurs 01 Rocket 2.7 21:18:05 25° SSW 21:20:10 41° W 21:24:22 10° NNW
Cosmos 1066 4.5 21:15:46 10° N 21:21:16 85° E 21:21:41 76° SSE
GEOS 3 Rocket 3.7 21:17:27 10° NNE 21:22:52 78° NW 21:28:14 10° SW
Nadezhda 3 Rocket 4.0 21:23:55 10° N 21:30:15 79° W 21:32:05 49° S
ATLAS CENTAUR R/B 3.5 21:20:07 10° NW 21:30:22 46° WSW 21:31:41 38° SSW
GP-B 4.1 21:26:12 10° N 21:30:26 45° W 21:31:31 37° WSW
Cosmos 1980 Rocket 4.4 21:39:59 10° NNE 21:41:06 13° NNE 21:41:06 13° NNE
Cosmos 1697 Rocket 4.5 21:38:51 10° N 21:41:18 20° NNE 21:41:18 20° NNE
Cosmos 1125 Rocket 4.0 21:38:15 10° NNW 21:43:26 55° WSW 21:43:27 55° WSW
H-2A R/B 4.2 21:51:51 15° NNE 21:51:51 15° NNE 21:52:53 10° N
ERS-1 Rocket 4.5 21:51:33 28° N 21:51:33 28° N 21:53:56 10° N
ATLAS 2AS CENTAUR R/B 3.5 22:23:34 10° NNW 22:29:44 51° N 22:29:44 51° N
